This demonstration page uses our WeatherBlox Daily Observations layout. Learn more.

Left ArrowRight Arrow

36.17497, -115.13722

Hourly Observations for October 15, 2021

Temp ( °F °C ) Dew Point ( °F °C ) Humidity (%) Winds ( mph kmh ) Pressure ( in mb ) Visibility ( mi km ) Precip ( " mm )
12:53 am 00:53 Clear 61 16.1 24 -4.4 24 24 N 6 9 30.22 1023 10 16 N/A
1:53 am 01:53 Clear 58 14.4 27 -2.8 31 31 ESE 6 9 30.25 1024 10 16 N/A
2:53 am 02:53 Clear 57 13.9 28 -2.2 33 33 WNW 7 11 30.25 1024 10 16 N/A
3:53 am 03:53 Clear 60 15.6 22 -5.6 23 23 N 7 11 30.26 1025 10 16 N/A
4:53 am 04:53 Clear 58 14.4 24 -4.4 27 27 N N/A 30.27 1025 10 16 N/A
5:53 am 05:53 Clear 55 12.8 22 -5.6 28 28 WNW 3 6 30.29 1026 10 16 N/A
6:53 am 06:53 Sunny 56 13.3 21 -6.1 26 26 NNW 8 13 30.29 1026 10 16 N/A
7:53 am 07:53 Sunny 59 15 22 -5.6 24 24 NNW 9 15 30.32 1027 10 16 N/A
8:53 am 08:53 Sunny 62 16.7 24 -4.4 23 23 N 6 9 30.35 1028 10 16 N/A
9:53 am 09:53 Sunny 63 17.2 23 -5 22 22 N N/A 30.35 1028 10 16 N/A
10:53 am 10:53 Sunny 67 19.4 22 -5.6 18 18 N 8 13 30.34 1027 10 16 N/A
11:53 am 11:53 Sunny 68 20 22 -5.6 17 17 NNW 6 9 30.32 1027 10 16 N/A
12:53 pm 12:53 Sunny 71 21.7 18 -7.8 13 13 E 7 11 30.28 1026 10 16 N/A
1:53 pm 13:53 Sunny 72 22.2 17 -8.3 12 12 N N/A 30.26 1025 10 16 N/A
2:53 pm 14:53 Sunny 74 23.3 17 -8.3 11 11 VRB 3 6 30.24 1024 10 16 N/A
3:53 pm 15:53 Sunny 74 23.3 16 -8.9 11 11 VRB 3 6 30.22 1023 10 16 N/A
4:53 pm 16:53 Sunny 74 23.3 15 -9.4 10 10 W 5 7 30.21 1023 10 16 N/A
5:53 pm 17:53 Sunny 73 22.8 15 -9.4 11 11 WNW 5 7 30.21 1023 10 16 N/A
6:53 pm 18:53 Clear 70 21.1 17 -8.3 13 13 N N/A 30.22 1023 10 16 N/A
7:53 pm 19:53 Clear 65 18.3 20 -6.7 18 18 NW 6 9 30.22 1024 10 16 N/A
8:53 pm 20:53 Clear 64 17.8 23 -5 21 21 W 6 9 30.23 1024 10 16 N/A
9:53 pm 21:53 Clear 61 16.1 23 -5 23 23 WNW 6 9 30.24 1024 10 16 N/A
10:53 pm 22:53 Clear 61 16.1 20 -6.7 20 20 NW 5 7 30.24 1024 10 16 N/A
11:53 pm 23:53 Clear 59 15 18 -7.8 20 20 W 6 9 30.23 1024 10 16 N/A

Powered by AerisWeather